St. Marys, AK

5:52 AM AKST on November 18, 2019 (GMT -0900)
Saint Mary's

Weather History for PASM - September, 2019

Change the Weather History Date:

Thursday, September 5, 2019

  Actual Average Record
Temperature  
Mean Temperature 50 °F -  
Max Temperature 53 °F 50 °F 66 °F (1996)
Min Temperature 48 °F 39 °F 28 °F (2014)
Degree Days  
Heating Degree Days 14    
Moisture  
Dew Point 51 °F    
Average Humidity 96    
Maximum Humidity 100    
Minimum Humidity 92    
Precipitation  
Precipitation 0.26 in - - ()
Sea Level Pressure  
Sea Level Pressure 29.88 in    
Wind  
Wind Speed 12 mph ()    
Max Wind Speed 17 mph    
Max Gust Speed 29 mph    
Visibility 6.3 miles    
Events Rain    
Averages and records for this station are not official NWS values.
T = Trace of Precipitation, MM = Missing Value Source: Averaged Metar Reports

Daily Weather History Graph

Daily Weather History Graph

Search for Another Location

Airport or City:

Astronomy

Sep. 05, 2019 Rise Set
Actual Time 7:52 AM AKDT 9:49 PM AKDT
Civil Twilight 7:05 AM AKDT 10:36 PM AKDT
Nautical Twilight 6:03 AM AKDT 11:37 PM AKDT
Astronomical Twilight 4:40 AM AKDT 12:57 AM AKDT
Moon 5:27 PM AKDT (9/5) 11:55 PM AKDT (9/5)
Length of Visible Light 15h 30m
Length of Day
13h 56m
Waxing Crescent, 47% of the Moon is Illuminated
Sep 5
Waxing Crescent
Sep 5
First Quarter
Sep 13
Full
Sep 21
Last Quarter
Sep 28
New

Hourly Weather History & Observations

Time (AKDT) Temp. Dew Point Humidity Pressure Visibility Wind Dir Wind Speed Gust Speed Precip Events Conditions
12:02 AM 48.9 °F 48.0 °F 97% 29.97 in 10.0 mi SSE 9.2 mph - N/A   Mostly Cloudy
1:02 AM 48.2 °F 48.2 °F 100% 29.95 in 10.0 mi SSE 12.7 mph 17.3 mph 0.00 in Rain Light Rain
1:18 AM 48.2 °F 48.2 °F 100% 29.95 in 9.0 mi SSE 8.1 mph - 0.00 in Rain Light Rain
1:31 AM 48.2 °F 48.2 °F 100% 29.94 in 9.0 mi SSE 11.5 mph 17.3 mph 0.01 in Rain Light Rain
2:02 AM 50.0 °F 48.9 °F 96% 29.96 in 8.0 mi SE 9.2 mph - 0.02 in Rain Light Rain
2:52 AM 50.0 °F 48.2 °F 94% 29.93 in 10.0 mi SSE 12.7 mph 24.2 mph 0.03 in Rain Light Rain
3:02 AM 50.0 °F 48.9 °F 96% 29.95 in 10.0 mi SE 13.8 mph 20.7 mph 0.03 in Rain Light Rain
4:02 AM 51.1 °F 48.9 °F 92% 29.94 in 10.0 mi SSE 12.7 mph 20.7 mph 0.01 in Rain Light Rain
5:02 AM 50.0 °F 48.9 °F 96% 29.94 in 10.0 mi SSE 13.8 mph 24.2 mph 0.04 in Rain Light Rain
6:02 AM 50.0 °F 48.9 °F 96% 29.94 in 10.0 mi SE 11.5 mph 19.6 mph 0.01 in Rain Light Rain
7:02 AM 50.0 °F 48.9 °F 96% 29.93 in 10.0 mi SSE 11.5 mph - 0.01 in Rain Light Rain
8:02 AM 50.0 °F 48.9 °F 96% 29.90 in 9.0 mi SE 16.1 mph 24.2 mph 0.01 in Rain Light Rain
9:02 AM 50.0 °F 48.9 °F 96% 29.90 in 6.0 mi SE 17.3 mph 25.3 mph 0.01 in Rain Light Rain
10:02 AM 50.0 °F 48.9 °F 96% 29.89 in 5.0 mi SE 13.8 mph 21.9 mph 0.02 in Rain Light Rain
11:02 AM 50.0 °F 48.9 °F 96% 29.89 in 3.0 mi SE 16.1 mph 25.3 mph 0.01 in Rain Light Rain
11:55 AM 51.8 °F 50.0 °F 94% 29.87 in 10.0 mi SE 16.1 mph 24.2 mph 0.01 in Rain Light Rain
12:02 PM 51.1 °F 50.0 °F 96% 29.89 in 10.0 mi SE 15.0 mph 27.6 mph 0.01 in   Overcast
1:02 PM 51.1 °F 50.0 °F 96% 29.89 in 4.0 mi SSE 12.7 mph 23.0 mph 0.00 in Rain Light Rain
1:10 PM 51.8 °F 50.0 °F 94% 29.86 in 4.0 mi SE 16.1 mph 21.9 mph 0.00 in Rain Light Rain
2:02 PM 52.0 °F 51.1 °F 97% 29.89 in 7.0 mi SSE 11.5 mph 23.0 mph 0.01 in Rain Light Rain
3:02 PM 52.0 °F 51.1 °F 97% 29.88 in 5.0 mi SSE 11.5 mph 24.2 mph 0.01 in Rain Light Rain
3:46 PM 53.6 °F 51.8 °F 94% 29.85 in 2.5 mi SSE 12.7 mph 25.3 mph 0.00 in Rain Light Rain
4:02 PM 53.1 °F 52.0 °F 96% 29.88 in 2.5 mi SSE 12.7 mph 26.5 mph 0.00 in Rain Light Rain
5:02 PM 53.6 °F 51.8 °F 94% 29.85 in 5.0 mi SSE 15.0 mph 23.0 mph 0.01 in Rain Light Rain
6:02 PM 53.1 °F 52.0 °F 96% 29.86 in 10.0 mi SSE 16.1 mph 25.3 mph 0.02 in Rain Light Rain
6:43 PM 53.6 °F 51.8 °F 94% 29.83 in 4.0 mi SSE 13.8 mph 25.3 mph 0.00 in Rain Light Rain
7:02 PM 53.1 °F 52.0 °F 96% 29.86 in 4.0 mi SSE 15.0 mph 24.2 mph 0.00 in Rain Light Rain
7:39 PM 53.6 °F 53.6 °F 100% 29.83 in 2.5 mi SSE 15.0 mph 25.3 mph 0.02 in Rain Light Rain
7:54 PM 53.6 °F 53.6 °F 100% 29.83 in 4.0 mi SSE 15.0 mph 23.0 mph 0.02 in Rain Light Rain
8:02 PM 53.1 °F 52.0 °F 96% 29.85 in 10.0 mi SSE 13.8 mph 27.6 mph 0.03 in Rain Light Rain
8:12 PM 53.6 °F 51.8 °F 94% 29.82 in 10.0 mi SE 13.8 mph 28.8 mph 0.00 in   Overcast
8:37 PM 53.6 °F 51.8 °F 94% 29.83 in 3.0 mi SE 13.8 mph 19.6 mph 0.00 in Rain Light Rain
9:02 PM 53.6 °F 51.8 °F 94% 29.83 in 2.5 mi SSE 13.8 mph 20.7 mph 0.00 in Rain Light Rain
9:12 PM 53.6 °F 51.8 °F 94% 29.83 in 4.0 mi SSE 13.8 mph 21.9 mph 0.00 in Rain Light Rain
9:48 PM 53.6 °F 51.8 °F 94% 29.83 in 2.5 mi SSE 11.5 mph 20.7 mph 0.00 in Rain Light Rain
10:02 PM 53.1 °F 53.1 °F 100% 29.85 in 2.0 mi SSE 15.0 mph 23.0 mph 0.00 in Rain Light Rain
10:10 PM 53.6 °F 53.6 °F 100% 29.83 in 1.8 mi SSE 16.1 mph 21.9 mph 0.00 in Rain Light Rain
10:19 PM 53.6 °F 53.6 °F 100% 29.83 in 3.0 mi SSE 13.8 mph 23.0 mph 0.00 in Rain Light Rain
11:02 PM 53.1 °F 53.1 °F 100% 29.86 in 4.0 mi SSE 13.8 mph 21.9 mph 0.01 in Rain Light Rain